{"data":{"norad_id":63162,"epoch":"2026-09-22T21:36:08.852544Z","epoch_age_seconds":103589,"freshness":"FRESH","line1":"1 63162U 25046D   26265.90010246 -.00000076  00000+0 -13599-3 0  9992","line2":"2 63162  88.9640 290.6218 0014478  34.0062 326.2014 13.51020580 85727","mean_motion":13.5102058,"eccentricity":0.0014478,"inclination_deg":88.964,"raan_deg":290.6218,"arg_perigee_deg":34.0062,"mean_anomaly_deg":326.2014,"bstar":-0.00013599,"rev_number":8572,"period_min":106.58608916231,"perigee_km":1057.7247118186,"apogee_km":1079.2872111779,"semimajor_km":7446.6429614983,"source":"CELESTRAK","updated_at":"2026-09-23T09:00:21.846884Z"}}